"datetime","# probes","# resolvers","can_ipv6","can_ipv6_prbs","can_tcp","can_tcp_prbs","can_tcp6","can_tcp6_prbs","does_ecs","does_ecs_prbs","does_flagday","does_flagday_prbs","does_rov4","does_rov4_prbs","does_rov6","does_rov6_prbs","does_qnamemin","doesnt_qnamemin","does_qnamemin_prbs","doesnt_qnamemin_prbs","does_nxdomain","doesnt_nxdomain","does_nxdomain_prbs","doesnt_nxdomain_prbs","has_ta_19036","hasnt_ta_19036","has_ta_19036_prbs","hasnt_ta_19036_prbs","has_ta_20326","hasnt_ta_20326","has_ta_20326_prbs","hasnt_ta_20326_prbs","can_rsamd5","cannot_rsamd5","broken_rsamd5","can_rsamd5_prbs","cannot_rsamd5_prbs","broken_rsamd5_prbs","can_dsa","cannot_dsa","broken_dsa","can_dsa_prbs","cannot_dsa_prbs","broken_dsa_prbs","can_rsasha1","cannot_rsasha1","broken_rsasha1","can_rsasha1_prbs","cannot_rsasha1_prbs","broken_rsasha1_prbs","can_dsansec3","cannot_dsansec3","broken_dsansec3","can_dsansec3_prbs","cannot_dsansec3_prbs","broken_dsansec3_prbs","can_rsansec3","cannot_rsansec3","broken_rsansec3","can_rsansec3_prbs","cannot_rsansec3_prbs","broken_rsansec3_prbs","can_rsasha256","cannot_rsasha256","broken_rsasha256","can_rsasha256_prbs","cannot_rsasha256_prbs","broken_rsasha256_prbs","can_rsasha512","cannot_rsasha512","broken_rsasha512","can_rsasha512_prbs","cannot_rsasha512_prbs","broken_rsasha512_prbs","can_eccgost","cannot_eccgost","broken_eccgost","can_eccgost_prbs","cannot_eccgost_prbs","broken_eccgost_prbs","can_ecdsa256","cannot_ecdsa256","broken_ecdsa256","can_ecdsa256_prbs","cannot_ecdsa256_prbs","broken_ecdsa256_prbs","can_ecdsa384","cannot_ecdsa384","broken_ecdsa384","can_ecdsa384_prbs","cannot_ecdsa384_prbs","broken_ecdsa384_prbs","can_ed25519","cannot_ed25519","broken_ed25519","can_ed25519_prbs","cannot_ed25519_prbs","broken_ed25519_prbs","can_ed448","cannot_ed448","broken_ed448","can_ed448_prbs","cannot_ed448_prbs","broken_ed448_prbs","can_gost","cannot_gost","broken_gost","can_gost_prbs","cannot_gost_prbs","broken_gost_prbs","can_sha384","cannot_sha384","broken_sha384","can_sha384_prbs","cannot_sha384_prbs","broken_sha384_prbs","is_internal","is_forwarding","is_external","is_internal_prbs","is_forwarding_prbs","is_external_prbs"
2017-06-20T23:59:59Z,47,83,68,40,83,47,67,39,40,23,0,0,0,0,0,0,3,80,2,45,0,83,0,47,0,0,0,0,0,0,0,0,4,50,28,4,31,16,7,75,1,6,43,1,37,45,0,22,28,0,7,75,1,6,43,1,36,46,0,21,29,0,36,46,0,21,29,0,36,46,0,21,29,0,0,83,0,1,47,0,36,46,0,21,29,0,36,46,0,21,29,0,0,83,0,0,47,0,0,83,0,0,47,0,29,53,0,16,33,0,36,45,0,21,28,0,28,23,32,18,20,15
2017-06-21T23:59:59Z,46,81,66,39,81,46,65,38,38,23,0,0,0,0,0,0,3,78,2,44,0,81,0,46,0,0,0,0,0,0,0,0,4,49,27,4,31,15,7,74,0,6,43,0,36,44,0,21,28,0,7,74,0,6,43,0,36,44,0,21,28,0,36,44,0,21,28,0,36,44,0,21,28,0,0,81,0,1,46,0,36,44,0,21,28,0,36,44,0,21,28,0,0,81,0,0,46,0,0,81,0,0,46,0,29,51,0,16,32,0,36,43,0,21,27,0,26,23,32,16,21,15
2017-06-22T23:59:59Z,45,80,65,38,80,45,64,37,39,23,0,0,0,0,0,0,0,80,0,45,0,80,0,45,0,0,0,0,0,0,0,0,4,47,28,4,30,15,8,72,0,7,41,0,38,41,0,22,26,0,7,73,0,6,42,0,37,42,0,21,27,0,37,42,0,21,27,0,37,42,0,21,27,0,0,80,0,1,45,0,37,42,0,21,27,0,37,42,0,21,27,0,0,80,0,0,45,0,0,80,0,0,45,0,30,49,0,16,31,0,37,42,0,21,27,0,25,23,32,16,21,15
2017-06-23T23:59:51Z,43,78,66,37,78,43,65,36,41,23,0,0,0,0,0,0,0,78,0,43,0,78,0,43,0,0,0,0,0,0,0,0,4,44,29,4,28,16,7,71,0,6,40,0,38,39,0,22,25,0,7,71,0,6,40,0,38,39,0,22,25,0,38,39,0,22,25,0,38,39,0,22,25,0,0,78,0,1,43,0,38,39,0,22,25,0,38,39,0,22,25,0,0,78,0,0,43,0,0,78,0,0,43,0,31,46,0,17,29,0,38,39,0,22,25,0,24,24,30,15,20,14
2017-06-24T23:59:57Z,45,76,63,38,76,45,62,37,40,24,0,0,0,0,0,0,0,76,0,45,0,76,0,45,0,0,0,0,0,0,0,0,4,44,27,5,30,15,7,69,0,7,42,0,36,39,0,22,27,0,7,69,0,7,42,0,36,39,0,22,27,0,36,39,0,22,27,0,36,39,0,22,27,0,0,76,0,2,45,0,36,39,0,22,27,0,36,39,0,22,27,0,0,76,0,0,45,0,0,76,0,0,45,0,29,46,0,17,31,0,36,39,0,22,27,0,24,22,30,16,20,14
2017-06-25T23:59:59Z,44,76,63,38,76,44,62,37,39,23,0,0,0,0,0,0,0,76,0,44,0,76,0,44,0,0,0,0,0,0,0,0,4,44,27,4,29,15,7,69,0,7,41,0,36,39,0,22,26,0,7,69,0,7,41,0,36,39,0,22,26,0,36,39,0,22,26,0,36,39,0,22,26,0,0,76,0,3,44,0,37,38,0,23,25,0,37,38,0,23,25,0,0,76,0,0,44,0,0,76,0,0,44,0,29,46,0,18,30,0,36,39,0,22,26,0,23,23,30,15,20,14
2017-06-26T23:59:59Z,44,76,63,37,76,44,62,36,37,22,0,0,0,0,0,0,0,76,0,44,0,76,0,44,0,0,0,0,0,0,0,0,4,45,27,4,30,16,7,69,0,7,41,0,36,40,0,22,27,0,7,69,0,6,41,1,36,40,0,22,27,0,36,40,0,22,27,0,36,40,0,22,27,0,0,76,0,2,44,0,37,39,0,23,26,0,37,39,0,23,26,0,0,76,0,0,44,0,0,76,0,0,44,0,29,47,0,17,31,0,36,40,0,22,27,0,25,21,30,16,19,14
2017-06-27T23:59:59Z,45,79,66,38,79,45,65,37,39,22,0,0,0,0,0,0,0,79,0,45,0,79,0,45,0,0,0,0,0,0,0,0,4,47,28,4,31,16,8,71,0,8,41,0,38,41,0,24,27,0,7,72,0,7,42,0,37,42,0,23,28,0,37,42,0,23,28,0,37,42,0,23,28,0,0,79,0,2,45,0,37,42,0,23,28,0,37,42,0,23,28,0,0,79,0,0,45,0,0,79,0,0,45,0,30,49,0,18,32,0,37,42,0,23,28,0,27,22,30,18,18,14
2017-06-28T23:59:59Z,45,79,66,39,79,45,65,38,41,24,0,0,0,0,0,0,0,79,0,45,0,79,0,45,0,0,0,0,0,0,0,0,4,48,27,4,31,15,7,72,0,8,42,0,36,43,0,23,28,0,7,72,0,8,42,0,36,43,0,23,28,0,36,43,0,23,28,0,36,43,0,23,28,0,0,79,0,3,45,0,37,42,0,24,27,0,36,43,0,23,28,0,1,78,0,1,44,0,0,78,1,0,44,1,29,50,0,17,32,1,37,42,0,24,28,0,27,22,30,19,18,14
2017-06-29T23:59:52Z,45,80,68,39,80,45,67,38,41,23,0,0,0,0,0,0,0,80,0,45,0,80,0,45,0,0,0,0,0,0,0,0,4,46,30,4,31,17,8,72,0,9,41,0,40,40,0,25,26,0,7,73,0,8,42,0,39,41,0,24,27,0,39,41,0,24,27,0,39,41,0,24,27,0,0,80,0,3,45,0,40,40,0,25,26,0,39,41,0,24,27,0,0,80,0,0,45,0,0,80,0,0,45,0,32,48,0,19,31,0,39,41,0,24,27,0,27,23,30,19,18,14
2017-06-30T23:59:59Z,44,79,67,38,79,44,64,37,39,22,0,0,0,0,0,0,0,79,0,44,0,79,0,44,0,0,0,0,0,0,0,0,4,45,30,4,29,17,8,71,0,8,40,0,38,41,0,24,26,0,7,72,0,7,41,0,39,40,0,24,26,0,39,40,0,24,26,0,39,40,0,24,26,0,0,79,0,2,44,0,39,40,0,24,26,0,39,40,0,24,26,0,0,79,0,0,44,0,0,79,0,0,44,0,30,49,0,18,31,0,38,41,0,24,26,0,26,23,30,17,18,14
2017-07-01T23:59:59Z,44,78,66,38,78,44,65,37,42,24,0,0,0,0,0,0,0,78,0,44,0,78,0,44,0,0,0,0,0,0,0,0,4,44,30,4,28,17,8,70,0,8,40,0,41,37,0,25,24,0,7,71,0,7,41,0,37,41,0,23,26,0,37,41,0,23,26,0,37,41,0,23,26,0,0,78,0,2,44,0,39,39,0,24,25,0,39,39,0,24,25,0,0,78,0,0,44,0,0,78,0,0,44,0,30,48,0,18,30,0,39,39,0,24,25,0,26,22,30,17,18,14
2017-07-02T23:59:59Z,43,79,66,38,79,43,65,37,42,23,0,0,0,0,0,0,0,79,0,43,0,78,0,43,0,0,0,0,0,0,0,0,4,47,28,4,30,16,8,71,0,8,39,0,38,41,0,24,26,0,7,72,0,7,40,0,37,42,0,23,27,0,37,42,0,23,27,0,37,42,0,23,27,0,0,79,0,2,43,0,39,40,0,24,26,0,39,40,0,24,26,0,0,79,0,0,43,0,0,79,0,0,43,0,30,49,0,18,31,0,38,40,0,24,26,0,26,22,31,17,17,15
2017-07-03T23:59:59Z,44,79,67,39,79,44,66,38,41,22,0,0,0,0,0,0,0,79,0,44,0,79,0,44,0,0,0,0,0,0,0,0,4,44,31,4,29,18,6,72,1,7,40,1,39,40,0,25,26,0,7,72,0,8,40,0,37,42,0,24,27,0,37,42,0,24,27,0,37,42,0,24,27,0,0,79,0,2,44,0,39,40,0,25,26,0,39,40,0,25,26,0,0,79,0,0,44,0,0,79,0,0,44,0,32,46,1,19,30,1,39,40,0,25,26,0,26,22,31,18,17,15
2017-07-04T23:59:52Z,45,82,70,40,82,45,69,39,42,22,0,0,0,0,0,0,0,82,0,45,0,82,0,45,0,0,0,0,0,0,0,0,4,46,32,4,30,18,6,75,1,7,41,1,40,42,0,25,27,0,6,75,1,7,41,1,39,43,0,24,28,0,39,43,0,24,28,0,39,43,0,24,28,0,0,82,0,2,45,0,40,42,0,25,27,0,40,42,0,25,27,0,0,82,0,0,45,0,0,82,0,0,45,0,33,49,0,19,32,0,39,43,0,24,28,0,26,23,33,18,18,16
2017-07-05T23:59:59Z,45,80,68,40,80,45,67,39,40,23,0,0,0,0,0,0,0,80,0,45,0,80,0,45,0,0,0,0,0,0,0,0,4,46,30,4,31,16,7,73,0,7,41,1,39,41,0,24,27,0,6,74,0,7,42,0,38,42,0,23,28,0,38,42,0,23,28,0,38,42,0,23,28,0,0,80,0,2,45,0,39,41,0,24,27,0,39,41,0,24,27,0,1,79,0,1,44,0,0,79,1,0,44,1,33,47,0,19,31,0,38,42,0,23,28,0,26,21,33,18,18,16
2017-07-06T23:59:59Z,43,80,70,39,80,43,68,38,41,22,0,0,0,0,0,0,0,80,0,43,0,79,0,43,0,0,0,0,0,0,0,0,4,45,31,4,29,17,7,73,0,7,40,0,40,40,0,24,26,0,7,73,0,7,40,0,40,40,0,24,26,0,40,40,0,24,26,0,40,40,0,24,26,0,0,80,0,2,43,0,40,40,0,24,26,0,40,40,0,24,26,0,0,80,0,0,43,0,0,80,0,0,43,0,33,47,0,19,30,0,40,40,0,24,26,0,24,23,33,16,18,16
2017-07-07T23:59:59Z,43,78,68,39,78,43,67,38,42,23,0,0,0,0,0,0,0,78,0,43,0,78,0,43,0,0,0,0,0,0,0,0,4,44,30,4,29,16,7,71,0,7,40,0,39,39,0,23,26,0,7,71,0,7,40,0,39,39,0,23,26,0,39,39,0,23,26,0,39,39,0,23,26,0,0,78,0,2,43,0,39,39,0,23,26,0,39,39,0,23,26,0,0,78,0,0,43,0,0,78,0,0,43,0,32,46,0,18,30,0,41,37,0,24,25,0,23,22,33,16,18,16
2017-07-08T23:59:59Z,46,84,74,42,84,46,73,41,44,23,0,0,0,0,0,0,3,81,2,44,0,84,0,46,0,0,0,0,0,0,0,0,4,49,31,4,32,18,7,77,0,7,43,1,40,44,0,25,29,0,7,77,0,8,43,0,40,44,0,25,29,0,40,44,0,25,29,0,40,44,0,25,29,0,0,84,0,2,46,1,41,43,0,26,28,0,40,44,0,25,29,0,1,83,0,1,45,1,0,83,1,0,45,2,33,50,1,19,33,2,40,43,0,25,28,0,27,24,33,18,19,16
2017-07-09T23:59:59Z,47,87,74,42,87,47,73,41,45,23,0,0,0,0,0,0,3,84,2,45,0,87,0,47,0,0,0,0,0,0,0,0,4,52,31,4,33,17,7,80,0,7,44,0,40,47,0,24,30,0,7,80,0,7,44,0,40,47,0,24,30,0,40,47,0,24,30,0,40,47,0,24,30,0,0,87,0,2,47,0,41,46,0,25,29,0,41,46,0,25,29,0,1,86,0,1,46,0,0,86,1,0,46,1,33,54,0,19,34,0,40,46,0,24,29,0,26,26,35,18,21,17
2017-07-10T23:59:59Z,46,87,72,40,87,46,71,39,43,22,0,0,0,0,0,0,0,87,0,46,0,87,0,46,0,0,0,0,0,0,0,0,4,51,32,4,32,17,7,80,0,6,43,1,41,46,0,24,29,0,7,80,0,7,43,0,41,46,0,24,29,0,41,46,0,24,29,0,41,46,0,24,29,0,0,87,0,2,46,0,42,45,0,25,28,0,41,46,0,24,29,0,0,87,0,0,46,0,0,87,0,0,46,0,34,53,0,19,33,0,41,46,0,24,29,0,26,26,35,17,20,17
2017-07-11T23:59:51Z,47,89,74,41,89,47,73,40,42,22,0,0,0,0,0,0,0,89,0,47,0,89,0,47,0,0,0,0,0,0,0,0,5,52,32,5,32,17,8,81,0,8,43,0,42,47,0,25,29,0,8,81,0,8,43,0,42,47,0,25,29,0,42,47,0,25,29,0,42,47,0,25,29,0,0,89,0,2,47,0,43,46,0,26,28,0,43,46,0,26,28,0,1,88,0,1,46,0,0,89,0,0,47,0,36,52,1,20,32,1,44,45,0,26,28,0,28,26,35,19,19,17
2017-07-12T23:59:52Z,45,82,67,39,82,45,66,38,39,21,0,0,0,0,0,0,0,82,0,45,0,82,0,45,0,0,0,0,0,0,0,0,4,48,30,4,30,16,7,74,1,6,41,2,39,43,0,23,27,0,7,74,1,7,41,1,38,44,0,22,28,0,38,44,0,22,28,0,38,44,0,22,28,0,0,82,0,2,45,0,39,43,0,23,27,0,39,43,0,23,27,0,0,81,1,0,44,1,0,81,1,0,44,1,32,50,0,18,31,0,38,44,0,22,28,0,27,22,33,18,18,16
2017-07-13T23:59:51Z,46,83,69,41,83,46,67,39,38,21,0,0,0,0,0,0,0,83,0,46,0,83,0,46,0,0,0,0,0,0,0,0,6,48,29,6,30,15,8,75,0,8,42,0,40,43,0,24,27,0,8,74,1,7,41,2,40,43,0,24,27,0,40,43,0,24,27,0,40,43,0,24,27,0,0,83,0,2,46,0,40,43,0,24,27,0,40,43,0,24,27,0,0,83,0,0,46,0,0,83,0,0,46,0,32,51,0,18,32,0,41,42,0,25,27,0,28,22,33,19,18,16
2017-07-14T23:59:58Z,66,112,98,61,112,66,96,59,40,22,0,0,0,0,0,0,0,112,0,66,0,112,0,66,0,0,0,0,0,0,0,0,5,77,30,5,50,18,36,75,1,27,42,3,68,44,0,43,28,0,36,75,1,27,42,3,67,45,0,42,29,0,67,45,0,42,29,0,67,45,0,42,29,0,0,112,0,3,66,2,67,45,0,42,29,0,67,45,0,42,29,0,0,112,0,0,66,3,0,112,0,0,66,2,32,80,0,19,51,3,67,45,0,42,29,0,56,23,33,38,19,16
2017-07-15T23:59:59Z,68,117,103,63,117,68,101,61,42,22,0,0,0,0,0,0,0,117,0,68,0,117,0,68,0,0,0,0,0,0,0,0,6,80,31,6,51,19,38,77,2,28,42,4,72,45,0,46,28,0,39,77,1,28,42,4,73,44,0,46,28,0,73,44,0,46,28,0,73,44,0,46,28,0,0,117,0,3,68,2,71,46,0,45,29,0,71,46,0,45,29,0,0,116,1,0,67,3,0,116,1,0,67,3,31,86,0,18,55,2,71,46,0,45,29,0,59,25,33,40,19,16
2017-07-16T23:59:59Z,71,119,105,66,119,71,103,64,42,24,0,0,0,0,0,0,0,119,0,71,0,119,0,71,0,0,0,0,0,0,0,0,5,83,31,5,54,18,40,77,2,30,43,3,75,44,0,48,28,0,41,77,1,30,44,2,74,45,0,47,29,0,74,45,0,47,29,0,74,45,0,47,29,0,0,119,0,2,71,2,77,42,0,49,27,0,75,44,0,48,28,0,1,117,1,1,69,3,0,117,2,0,69,3,30,87,2,17,57,3,74,45,0,47,29,0,63,23,33,43,19,16
2017-07-17T23:59:59Z,80,138,124,75,137,79,121,72,47,24,0,0,0,0,0,0,0,138,0,80,0,138,0,80,0,0,0,0,0,0,0,0,6,97,35,7,62,21,57,79,2,41,42,5,93,44,1,57,27,1,56,79,3,41,42,6,92,46,0,56,29,0,92,46,0,56,29,0,92,46,0,56,29,0,0,138,0,3,80,3,95,43,0,58,27,0,95,43,0,58,27,0,0,136,2,0,79,4,0,138,0,0,80,3,33,102,3,16,65,5,92,45,1,56,28,1,77,24,37,51,20,17
2017-07-18T23:59:59Z,72,126,112,67,123,71,109,65,44,24,0,0,0,0,0,0,0,126,0,72,0,125,0,72,0,0,0,0,0,0,0,0,5,89,32,5,56,17,48,78,0,33,43,1,80,46,0,48,29,0,46,80,0,32,44,1,80,46,0,48,29,0,80,46,0,48,29,0,80,46,0,48,29,0,0,126,0,2,72,1,81,45,0,49,29,0,80,45,1,48,29,1,0,125,1,0,72,2,0,125,1,0,72,2,32,94,0,16,59,1,80,46,0,48,29,0,65,25,36,42,20,17
2017-07-19T23:59:59Z,78,133,119,73,133,78,117,71,42,22,0,0,0,0,0,0,0,133,0,78,0,133,0,78,0,0,0,0,0,0,0,0,5,96,32,5,62,18,54,78,1,37,44,3,89,44,0,54,29,0,55,78,0,38,44,2,89,44,0,54,29,0,89,44,0,54,29,0,89,44,0,54,29,0,0,133,0,1,78,3,89,44,0,54,29,0,89,44,0,54,29,0,0,133,0,0,78,2,0,133,0,0,78,2,32,101,0,16,65,2,89,44,0,54,29,0,74,23,36,49,19,17
2017-07-20T23:59:55Z,76,132,118,71,132,76,116,69,50,27,0,0,0,0,0,0,0,132,0,76,0,132,0,76,0,0,0,0,0,0,0,0,6,93,33,6,59,18,52,80,0,36,44,1,87,45,0,53,29,0,52,80,0,36,44,1,87,45,0,53,29,0,87,45,0,53,29,0,87,45,0,53,29,0,0,132,0,1,76,1,89,43,0,54,28,0,89,43,0,54,28,0,0,132,0,0,76,1,0,131,1,0,75,2,36,96,0,20,60,1,88,44,0,54,28,0,71,25,36,47,19,17
2017-07-21T23:59:58Z,77,134,118,71,134,77,116,69,44,22,0,0,0,0,0,0,0,134,0,77,0,134,0,77,0,0,0,0,0,0,0,0,5,97,32,5,61,19,54,79,1,37,43,4,88,46,0,53,29,0,54,79,1,37,43,4,88,46,0,53,29,0,88,46,0,53,29,0,88,46,0,53,29,0,0,134,0,1,77,3,88,46,0,53,29,0,88,46,0,53,29,0,0,134,0,0,77,3,0,134,0,0,77,3,36,98,0,20,60,3,88,46,0,53,29,0,73,23,38,48,18,18
2017-07-22T23:59:58Z,80,138,122,74,138,80,119,72,44,22,0,0,0,0,0,0,0,138,0,80,0,138,0,80,0,0,0,0,0,0,0,0,5,99,34,5,63,22,54,83,1,39,44,5,90,48,0,57,29,1,55,82,1,40,43,5,89,49,0,56,30,1,89,49,0,56,30,1,89,49,0,56,30,1,0,138,0,2,80,5,90,48,0,57,29,1,90,48,0,57,29,1,0,138,0,1,80,4,0,138,0,0,80,4,35,103,0,19,65,4,89,49,0,56,30,1,75,25,38,51,18,18
2017-07-23T23:59:57Z,83,143,127,77,143,83,124,74,47,24,0,0,0,0,0,0,0,143,0,83,0,143,0,83,0,0,0,0,0,0,0,0,5,105,33,5,67,20,58,82,3,41,44,5,96,47,0,60,29,0,59,82,2,42,44,5,95,48,0,59,30,0,95,48,0,59,30,0,95,48,0,59,30,0,0,143,0,1,83,3,98,45,0,61,28,0,98,45,0,61,28,0,1,142,0,1,83,3,0,143,0,0,83,3,35,108,0,19,68,3,95,48,0,59,30,0,80,25,38,53,19,18
2017-07-24T23:59:59Z,82,141,125,76,141,82,122,73,45,24,0,0,0,0,0,0,0,141,0,82,0,141,0,82,0,0,0,0,0,0,0,0,5,103,33,5,66,19,51,89,1,35,51,3,83,58,0,50,38,0,51,89,1,34,52,3,84,56,1,49,37,1,83,58,0,50,38,0,85,56,0,51,38,0,0,141,0,2,82,2,84,57,0,50,39,0,86,55,0,51,36,0,0,140,1,2,82,3,0,140,1,0,82,3,33,106,2,17,67,4,84,57,0,50,38,0,80,23,38,52,19,18
2017-07-25T23:59:56Z,80,139,123,74,139,80,120,71,46,24,0,0,0,0,0,0,0,139,0,80,0,139,0,80,0,0,0,0,0,0,0,0,5,100,34,5,63,18,47,92,0,32,52,0,82,57,0,51,37,0,46,93,0,31,53,0,81,58,0,49,37,0,81,58,0,49,37,0,80,59,0,48,38,0,0,139,0,1,80,1,82,57,0,50,36,0,81,58,0,49,37,0,1,138,0,1,79,0,0,138,1,0,79,1,34,105,0,18,66,0,80,59,0,49,37,0,76,25,38,50,19,18
2017-07-26T23:59:59Z,81,137,121,75,137,81,117,71,44,24,0,0,0,0,0,0,0,137,0,81,0,137,0,81,0,0,0,0,0,0,0,0,7,97,33,8,63,18,43,93,1,31,54,2,77,60,0,47,40,0,44,92,1,31,53,3,77,60,0,47,40,0,76,61,0,46,40,0,76,61,0,46,40,0,0,137,0,1,81,3,79,58,0,49,38,0,77,60,0,47,39,0,0,135,2,0,80,3,0,136,1,0,81,2,37,98,2,21,62,3,76,61,0,46,41,0,76,23,38,51,19,18
2017-07-27T23:59:59Z,82,137,121,76,137,82,118,73,46,25,0,0,0,0,0,0,0,137,0,82,0,137,0,82,0,0,0,0,0,0,0,0,5,98,34,5,65,21,52,84,1,39,46,5,89,48,0,57,30,0,52,85,0,39,47,4,91,46,0,58,29,0,91,46,0,58,29,0,91,46,0,58,29,0,0,137,0,2,82,6,89,48,0,57,30,0,89,48,0,57,30,0,2,131,4,1,78,7,1,133,3,1,79,6,35,100,2,20,64,6,89,48,0,57,30,0,75,24,38,52,19,18
2017-07-28T23:59:56Z,80,135,119,74,135,80,116,71,47,25,0,0,0,0,0,0,0,135,0,80,0,135,0,80,0,0,0,0,0,0,0,0,8,94,33,7,62,19,52,83,0,40,45,2,88,47,0,57,29,0,51,84,0,38,46,2,87,48,0,56,30,0,87,48,0,56,30,0,87,48,0,56,30,0,0,135,0,2,80,3,90,45,0,58,28,0,90,45,0,58,28,0,0,134,1,0,79,3,0,135,0,0,80,2,38,97,0,21,63,2,89,46,0,57,29,0,72,25,38,50,19,18
2017-07-29T23:59:59Z,81,134,118,75,134,81,115,72,44,23,0,0,0,0,0,0,0,134,0,81,0,134,0,81,0,0,0,0,0,0,0,0,7,96,31,6,64,22,52,80,2,40,43,7,87,47,0,58,29,0,52,78,4,40,42,8,87,47,0,58,29,0,87,47,0,58,29,0,87,47,0,58,29,0,0,134,0,2,81,6,87,47,0,58,29,0,87,47,0,58,29,0,0,132,2,0,80,7,1,131,2,2,79,7,34,98,2,19,64,7,88,46,0,59,28,0,75,24,35,53,18,17
2017-07-30T23:59:56Z,76,132,116,70,132,76,113,67,48,24,0,0,0,0,0,0,0,132,0,76,0,132,0,76,0,0,0,0,0,0,0,0,7,93,31,7,60,15,49,82,1,36,43,1,85,47,0,53,29,0,49,82,1,36,43,1,83,48,0,52,30,0,83,48,0,52,30,0,84,48,0,52,30,0,0,132,0,1,76,1,85,47,0,53,29,0,85,47,0,53,29,0,0,131,1,1,75,1,1,130,1,1,74,1,32,99,0,16,64,0,84,47,0,53,29,0,70,27,35,48,18,17
2017-07-31T23:59:58Z,79,133,117,73,133,79,113,69,46,26,0,0,0,0,0,0,0,133,0,79,0,132,0,78,0,0,0,0,0,0,0,0,5,93,34,5,61,21,53,80,0,39,44,2,89,44,0,57,27,0,51,82,0,37,46,2,86,46,0,55,29,0,87,46,0,55,29,0,87,46,0,55,29,0,0,133,0,2,79,2,87,46,0,55,29,0,87,46,0,55,29,0,0,133,0,0,79,2,2,131,0,2,78,2,33,98,2,18,63,3,87,46,0,55,29,0,74,24,35,50,19,17
2017-08-01T23:59:59Z,77,129,113,71,129,77,110,68,40,22,0,0,0,0,0,0,0,129,0,77,0,129,0,77,0,0,0,0,0,0,0,0,5,94,30,5,61,18,51,78,0,38,43,2,83,46,0,54,28,0,50,78,1,37,43,3,83,46,0,54,28,0,83,46,0,54,28,0,83,46,0,54,28,0,0,129,0,1,77,3,83,46,0,54,28,0,83,46,0,54,28,0,0,128,1,0,76,3,0,129,0,0,77,2,31,97,1,17,62,3,83,46,0,54,28,0,71,23,35,48,19,17
2017-08-02T23:59:59Z,79,133,117,73,133,79,114,70,45,24,0,0,0,0,0,0,0,133,0,79,0,133,0,79,0,0,0,0,0,0,0,0,7,91,35,6,60,19,50,81,2,38,44,2,88,45,0,56,28,0,50,82,1,38,45,2,87,46,0,55,29,0,87,46,0,55,29,0,87,46,0,55,29,0,0,133,0,1,79,3,88,45,0,55,29,0,88,45,0,55,29,0,2,129,2,2,76,3,0,131,2,0,77,3,34,98,1,17,64,2,86,47,0,54,30,0,71,24,38,49,19,18
2017-08-03T23:59:58Z,78,132,116,72,132,78,113,69,43,22,0,0,0,0,0,0,0,132,0,78,0,132,0,78,0,0,0,0,0,0,0,0,6,91,35,6,60,19,50,81,1,37,44,2,87,45,0,55,28,0,50,81,1,37,44,2,87,45,0,55,28,0,87,45,0,55,28,0,87,45,0,55,28,0,0,132,0,2,78,2,86,46,0,54,29,0,86,46,0,54,29,0,0,129,3,0,76,4,0,131,1,0,78,3,35,96,1,18,62,2,86,46,0,54,29,0,71,23,38,49,18,18
2017-08-04T23:59:55Z,75,129,113,69,129,75,110,66,44,23,0,0,0,0,0,0,0,129,0,75,0,129,0,75,0,0,0,0,0,0,0,0,6,89,34,5,58,20,47,81,1,34,44,4,83,46,0,51,29,0,47,81,1,34,44,4,83,46,0,51,29,0,83,46,0,51,29,0,83,46,0,51,29,0,0,129,0,1,75,4,83,46,0,51,29,0,82,47,0,50,30,0,1,128,0,1,74,4,0,128,1,0,74,4,35,94,0,18,60,3,83,46,0,51,29,0,67,24,38,45,19,18
2017-08-05T23:59:58Z,78,132,116,72,132,78,112,69,44,24,0,0,0,0,0,0,0,132,0,78,0,132,0,78,0,0,0,0,0,0,0,0,8,91,33,7,59,19,50,80,2,36,44,4,87,45,0,55,28,0,50,81,1,36,45,3,86,46,0,54,29,0,86,46,0,54,29,0,86,46,0,54,29,0,0,132,0,1,78,3,87,45,0,54,29,0,87,45,0,54,29,0,0,129,3,0,76,4,1,131,0,1,77,2,34,98,0,18,63,2,85,47,0,53,30,0,71,23,38,48,19,18
2017-08-06T23:59:59Z,80,136,120,74,136,80,117,71,45,24,0,0,0,0,0,0,0,136,0,80,0,136,0,80,0,0,0,0,0,0,0,0,5,94,37,5,61,23,54,81,1,39,44,4,91,45,0,57,28,0,51,83,2,37,46,5,91,45,0,57,28,0,91,45,0,57,28,0,91,45,0,57,28,0,0,136,0,2,80,3,90,46,0,56,29,0,90,46,0,56,29,0,0,135,1,0,80,4,5,131,0,3,77,3,35,100,1,18,64,4,90,46,0,56,29,0,74,24,38,50,19,18
2017-08-07T23:59:59Z,80,135,119,74,135,80,116,71,45,24,0,0,0,0,0,0,0,135,0,80,0,135,0,80,0,0,0,0,0,0,0,0,6,93,36,5,61,22,50,82,3,36,45,6,89,46,0,56,29,0,52,81,2,38,45,5,89,46,0,56,29,0,89,46,0,56,29,0,89,46,0,56,29,0,0,135,0,1,80,5,88,47,0,55,30,0,88,47,0,55,30,0,0,132,3,0,78,6,1,133,1,1,79,4,36,99,0,20,63,3,88,47,0,55,30,0,73,24,38,49,20,18
2017-08-08T23:59:58Z,76,131,115,70,131,76,112,67,46,25,0,0,0,0,0,0,0,131,0,76,0,131,0,76,0,0,0,0,0,0,0,0,6,90,35,5,58,19,48,82,1,34,45,2,85,46,0,52,29,0,48,82,1,34,45,2,85,46,0,52,29,0,85,46,0,52,29,0,85,46,0,52,29,0,0,131,0,2,76,2,85,46,0,52,29,0,85,46,0,52,29,0,0,130,1,0,75,3,0,131,0,0,76,1,35,96,0,18,61,1,84,47,0,51,30,0,69,24,38,46,19,18
2017-08-09T23:59:53Z,82,139,123,76,139,82,119,72,46,25,0,0,0,0,0,0,0,139,0,82,0,139,0,82,0,0,0,0,0,0,0,0,9,93,37,7,61,24,54,84,1,39,46,5,95,44,0,60,27,0,54,82,3,39,45,6,93,46,0,58,29,0,93,46,0,58,29,0,93,46,0,58,29,0,0,139,0,2,82,5,95,44,0,59,28,0,95,44,0,59,28,0,0,133,6,0,78,9,2,135,2,2,79,6,37,101,1,20,64,5,92,47,0,57,30,0,77,24,38,52,19,18
2017-08-10T23:59:59Z,81,138,122,75,138,81,119,72,48,26,0,0,0,0,0,0,0,138,0,81,0,138,0,81,0,0,0,0,0,0,0,0,6,100,32,5,65,20,55,83,0,39,46,3,92,46,0,58,29,0,56,82,0,39,46,3,91,47,0,57,30,0,91,47,0,57,30,0,91,47,0,57,30,0,0,138,0,2,81,3,91,47,0,57,30,0,91,47,0,57,30,0,0,132,6,0,78,7,0,137,1,0,81,4,33,105,0,18,67,3,91,47,0,57,31,0,77,23,38,51,19,18
2017-08-11T23:59:58Z,80,138,122,74,138,80,119,71,44,23,0,0,0,0,0,0,0,138,0,80,0,138,0,80,0,0,0,0,0,0,0,0,7,96,35,6,61,21,52,84,2,36,46,4,91,47,0,56,29,0,53,83,2,37,45,4,90,48,0,55,30,0,90,48,0,55,30,0,90,48,0,55,30,0,0,138,0,1,80,2,89,49,0,54,31,0,89,49,0,54,31,0,1,137,0,1,80,2,1,137,0,1,79,2,36,102,0,20,64,2,90,48,0,55,31,0,76,24,38,50,19,18
2017-08-12T23:59:59Z,77,133,117,71,133,77,114,68,46,25,0,0,0,0,0,0,0,133,0,77,0,133,0,77,0,0,0,0,0,0,0,0,9,89,35,8,58,20,50,83,0,36,46,2,87,46,0,54,28,0,50,81,2,36,44,3,86,47,0,53,29,0,86,47,0,53,29,0,86,47,0,53,29,0,0,133,0,2,77,3,87,46,0,53,29,0,87,46,0,53,29,0,0,130,3,0,75,5,0,132,1,0,76,3,36,97,0,20,62,2,86,47,0,53,30,0,71,24,38,47,19,18
2017-08-13T23:59:59Z,76,131,115,70,131,76,112,67,44,25,0,0,0,0,0,0,0,131,0,76,0,131,0,76,0,0,0,0,0,0,0,0,8,93,30,7,59,16,49,82,0,34,46,1,83,48,0,51,30,0,50,81,0,35,45,1,83,48,0,51,30,0,83,48,0,51,30,0,83,48,0,51,30,0,0,131,0,1,76,3,83,48,0,51,30,0,83,48,0,51,30,0,0,128,3,0,73,4,0,130,1,0,75,2,32,99,0,17,62,1,84,47,0,52,30,0,71,22,38,47,18,18
2017-08-14T23:59:58Z,73,125,109,67,125,73,106,64,44,24,0,0,0,0,0,0,0,125,0,73,0,125,0,73,0,0,0,0,0,0,0,0,6,87,32,5,57,18,46,79,0,34,43,2,80,45,0,50,28,0,44,81,0,31,45,3,79,46,0,49,29,0,79,46,0,49,29,0,79,46,0,49,29,0,0,125,0,2,73,3,77,48,0,48,30,0,77,48,0,48,30,0,0,124,1,0,72,3,0,125,0,1,73,2,31,94,0,16,60,2,78,47,0,48,30,0,65,22,38,44,18,18
2017-08-15T23:59:58Z,77,133,117,71,133,77,113,68,45,23,0,0,0,0,0,0,0,133,0,77,0,133,0,77,0,0,0,0,0,0,0,0,7,94,31,6,61,19,51,82,0,37,44,4,86,47,0,53,29,0,51,82,0,37,44,4,86,47,0,53,29,0,86,47,0,53,29,0,86,47,0,53,29,0,0,133,0,2,77,5,85,48,0,52,30,0,85,48,0,52,30,0,0,133,0,0,77,4,1,132,0,1,76,4,37,96,0,19,61,4,85,48,0,52,30,0,71,24,38,48,18,18
2017-08-16T23:59:56Z,77,130,114,71,130,77,110,67,46,24,0,0,0,0,0,0,0,130,0,77,0,130,0,77,0,0,0,0,0,0,0,0,7,92,31,6,61,17,49,81,0,37,44,2,82,48,0,52,30,0,48,82,0,36,45,2,82,48,0,52,30,0,82,48,0,52,30,0,82,48,0,52,30,0,0,130,0,1,77,3,81,49,0,51,31,0,81,49,0,51,31,0,0,128,2,0,75,4,0,130,0,0,77,2,34,96,0,18,62,2,85,45,0,54,28,0,69,23,38,48,18,18
2017-08-17T23:59:58Z,74,125,109,68,125,74,105,64,45,23,0,0,0,0,0,0,0,125,0,74,0,125,0,74,0,0,0,0,0,0,0,0,6,88,31,6,59,17,44,81,0,34,44,2,77,48,0,49,30,0,44,81,0,34,44,2,77,48,0,49,30,0,77,48,0,49,30,0,77,48,0,49,30,0,0,125,0,1,74,4,76,49,0,48,31,0,76,49,0,48,31,0,0,125,0,0,74,3,1,124,0,1,73,3,33,92,0,17,60,2,78,47,0,49,30,0,64,23,38,45,18,18
2017-08-18T23:59:58Z,80,134,118,74,134,80,114,70,46,24,0,0,0,0,0,0,3,131,2,78,0,134,0,80,0,0,0,0,0,0,0,0,6,95,33,5,64,21,47,86,1,36,48,5,83,51,0,53,32,0,47,83,4,36,46,6,83,51,0,53,32,0,83,51,0,53,32,0,83,51,0,53,32,0,0,134,0,1,80,5,82,52,0,52,33,0,82,52,0,52,33,0,0,133,1,0,79,6,2,132,0,1,79,5,36,98,0,20,64,4,82,51,0,52,32,0,73,23,38,51,18,18
2017-08-19T23:59:59Z,75,127,111,69,127,75,107,66,45,24,0,0,0,0,0,0,0,127,0,75,0,127,0,75,0,0,0,0,0,0,0,0,7,88,32,6,58,18,45,82,0,35,44,2,81,46,0,52,28,0,43,82,2,33,44,4,78,49,0,50,30,0,78,49,0,50,30,0,78,49,0,50,30,0,0,127,0,2,75,2,80,47,0,51,29,0,80,47,0,51,29,0,0,125,2,0,73,4,1,126,0,1,74,2,34,93,0,18,60,2,77,50,0,49,31,0,65,24,38,46,18,18
2017-08-20T23:59:58Z,78,133,117,72,133,78,113,69,44,23,0,0,0,0,0,0,0,133,0,78,0,133,0,78,0,0,0,0,0,0,0,0,8,93,32,6,61,19,50,82,1,37,44,4,84,49,0,53,30,0,49,82,2,36,44,5,84,49,0,53,30,0,84,49,0,53,30,0,84,49,0,53,30,0,0,133,0,2,78,4,86,47,0,54,29,0,85,48,0,53,30,0,2,128,3,2,75,5,1,131,1,1,76,4,32,100,1,16,64,4,84,49,0,53,30,0,71,24,38,49,18,18
2017-08-21T23:59:59Z,74,128,112,68,128,74,108,65,43,23,0,0,0,0,0,0,0,128,0,74,0,128,0,74,0,0,0,0,0,0,0,0,6,91,31,5,58,16,46,81,1,33,44,1,80,48,0,50,29,0,46,80,2,33,43,2,80,48,0,50,29,0,80,48,0,50,29,0,80,48,0,50,29,0,0,128,0,1,74,0,78,50,0,48,31,0,78,50,0,48,31,0,0,124,4,0,72,3,2,125,1,1,72,1,32,96,0,16,61,0,80,48,0,50,30,0,67,23,38,45,18,18
2017-08-22T23:59:59Z,72,123,107,66,123,72,103,63,43,23,0,0,0,0,0,0,0,123,0,72,0,123,0,72,0,0,0,0,0,0,0,0,6,85,32,5,56,19,41,81,1,31,44,4,75,48,0,48,29,0,42,81,0,32,44,4,74,49,0,47,30,0,74,49,0,47,30,0,74,49,0,47,30,0,0,123,0,2,72,4,73,50,0,46,31,0,73,50,0,46,31,0,1,119,3,1,70,5,0,121,2,0,71,4,32,91,0,17,58,3,73,50,0,46,31,0,62,23,38,43,18,18